GEFSNGP_850_meantemp_198.txt.gz
Temperature
29 29 30 29 29 29 30 30 30 30 31 31 30 29 28 26 25 24 23 23 22 22 21 21 21 20 20 20 20 19 19 19 18 18 18 18 17 17 17 17 16 16 16 16
27 28 29 29 29 29 30 30 30 30 30 31 29 28 27 26 25 24 23 23 22 21 21 21 20 20 20 20 20 19 19 18 18 18 18 17 17 17 16 16 16 16 15 15
27 28 28 28 29 29 29 30 30 30 30 29 28 27 26 25 24 24 23 22 22 21 21 20 20 20 20 20 19 19 19 18 18 18 17 17 16 16 16 16 15 15 15 15
27 26 25 28 29 30 29 29 30 30 29 29 28 26 25 24 24 23 23 22 21 21 21 20 20 20 20 20 19 19 18 18 18 17 17 16 16 16 15 15 15 14 14 14
27 26 27 27 28 28 28 28 29 29 29 28 26 26 25 24 23 23 22 22 21 21 20 20 20 20 19 19 19 18 18 18 17 17 16 16 15 15 15 14 14 14 14 13
26 26 26 27 28 27 28 27 28 28 27 27 26 28 27 23 23 22 22 21 21 20 20 20 19 19 19 18 18 18 18 17 17 16 16 15 15 15 14 14 14 14 13 13
25 26 27 27 26 26 26 27 26 26 26 26 26 27 24 22 22 21 21 20 20 20 20 19 19 19 18 18 18 18 17 17 16 16 16 15 15 14 14 14 14 13 13 13
25 25 26 25 26 26 25 24 25 25 25 24 24 23 22 21 20 20 20 20 20 20 19 19 19 18 18 18 17 17 17 16 16 16 15 15 14 14 14 13 13 13 13 12
25 25 23 23 23 22 22 23 23 23 23 23 22 21 21 20 19 19 19 19 19 19 19 18 18 18 18 17 17 17 16 16 16 15 15 15 14 14 13 13 13 13 12 12
22 23 22 21 21 21 21 22 22 21 21 22 21 21 20 19 18 18 18 18 18 18 18 18 17 17 17 17 17 16 16 15 15 15 14 14 14 13 13 13 13 12 12 12
22 22 21 21 20 20 20 20 20 20 20 20 20 20 19 18 18 18 18 18 18 18 18 17 17 17 16 16 16 16 15 15 14 14 13 13 13 13 13 13 12 12 12 12
22 20 21 20 19 19 19 19 19 19 19 19 19 19 18 18 18 18 18 17 17 17 17 16 16 16 16 16 16 15 14 14 14 13 13 13 13 13 12 12 12 12 12 11
18 18 18 18 18 18 18 18 18 18 19 18 18 18 18 17 17 17 17 17 17 16 16 16 16 15 15 15 15 15 14 14 13 13 13 13 13 12 12 12 11 11 11 11
16 17 17 17 17 17 17 17 17 17 17 18 17 17 17 17 17 17 16 16 16 16 16 15 15 15 15 14 14 14 14 14 13 13 13 13 12 12 12 11 11 11 11 11
16 16 17 16 16 16 16 17 17 17 17 16 17 16 16 16 16 16 16 16 16 15 15 15 15 14 14 14 14 14 13 13 13 13 13 12 12 12 12 11 11 11 11 10
16 16 16 16 16 16 16 16 17 16 16 16 16 16 16 16 15 15 15 15 15 15 14 14 14 14 14 14 14 13 13 13 13 13 12 12 12 12 12 11 11 10 10 10
16 16 16 16 16 16 16 16 16 16 16 15 15 15 15 15 14 14 14 14 14 14 14 14 14 14 14 14 13 13 13 12 12 12 12 12 12 12 11 11 11 10 10 10
15 15 15 16 16 15 15 15 15 15 15 15 14 14 14 14 14 14 14 14 13 13 13 13 13 13 13 13 13 13 12 12 12 12 12 11 11 11 11 11 11 10 10 10
15 15 15 14 15 15 15 15 15 14 14 14 14 14 13 13 13 13 13 13 13 13 13 13 13 13 13 13 13 12 12 12 12 11 11 11 11 11 11 11 10 10 10 10
14 14 14 14 14 14 14 14 14 14 14 14 13 13 13 13 13 13 13 13 13 13 13 13 13 12 12 13 12 12 12 12 11 11 11 11 11 11 11 11 10 10 10 10
13 13 13 14 14 14 14 13 13 13 13 13 13 13 13 12 12 12 12 12 12 12 12 12 12 12 12 12 12 12 12 12 11 11 11 11 11 11 11 10 10 10 10 10
12 13 13 13 13 13 13 13 13 13 13 13 12 12 12 12 12 12 12 12 12 12 12 12 12 12 12 12 12 11 11 11 11 11 11 11 11 11 10 10 10 10 10 9
12 12 12 12 12 12 12 12 12 12 12 12 12 12 12 12 12 12 12 12 12 12 11 11 11 11 11 11 11 11 11 11 11 11 11 11 11 10 10 10 10 10 9 9
11 11 12 11 12 12 12 12 12 12 12 12 12 12 12 12 11 12 11 12 11 11 11 11 11 11 11 11 11 11 11 11 11 11 11 11 10 10 10 10 10 10 9 9
11 11 11 11 11 11 11 11 11 11 11 11 11 11 11 11 11 11 11 11 11 11 11 11 11 11 11 11 11 10 10 11 11 11 11 11 11 10 10 10 10 9 9 9
11 11 11 11 11 11 11 11 11 11 11 11 11 11 11 11 11 11 11 11 11 11 11 10 10 10 10 10 10 10 10 10 10 10 10 10 10 10 10 10 9 9 9 9
10 10 10 10 10 11 11 11 11 11 11 11 11 11 11 11 11 11 11 11 10 10 10 10 10 10 10 10 10 10 10 10 10 10 10 10 10 10 9 9 9 9 8 8

GEFSNGP_850_meantemp_204.txt.gz
Temperature
30 31 32 32 32 32 32 32 32 32 31 31 31 31 30 29 29 28 27 26 25 25 24 23 22 22 21 21 21 20 20 19 19 19 18 18 18 17 17 17 16 16 16 16
28 30 31 31 32 32 32 32 32 32 31 32 31 30 29 29 28 28 27 26 25 24 23 22 22 21 21 21 20 20 20 19 19 18 18 18 17 17 17 17 16 16 16 16
27 29 30 30 31 32 32 33 32 32 31 32 30 30 29 28 28 27 27 26 25 24 23 22 21 21 21 20 20 20 19 19 18 18 18 17 17 16 16 16 16 16 16 15
27 28 27 30 33 33 32 32 33 33 32 32 31 29 28 28 27 27 26 25 24 23 22 22 21 21 21 20 20 19 19 19 18 17 17 17 16 16 16 16 16 15 15 15
26 27 28 30 32 32 31 31 32 32 31 31 30 29 28 27 27 26 25 25 24 23 22 22 21 20 20 20 19 19 19 18 18 17 17 16 16 16 16 15 15 15 15 15
26 26 26 29 32 32 32 30 31 31 31 30 29 28 28 27 26 25 24 23 23 22 22 21 21 20 20 19 19 19 18 18 17 17 17 16 16 16 15 15 15 15 14 14
25 26 27 29 31 31 29 28 30 30 30 29 28 28 26 25 25 24 23 22 22 21 21 21 20 20 19 19 18 18 18 17 17 17 17 16 16 15 15 15 15 14 14 14
25 25 26 29 30 29 27 28 28 28 28 27 27 26 25 24 23 23 22 22 21 21 20 20 20 19 19 18 18 18 17 17 17 16 16 16 16 15 15 15 14 14 14 14
25 25 26 27 26 26 27 27 27 27 26 26 25 24 23 23 22 22 21 21 20 20 20 19 19 19 18 18 18 17 17 17 16 16 16 16 15 15 15 14 14 14 13 13
24 25 25 25 25 25 25 26 26 26 25 25 24 24 23 22 21 21 20 20 20 19 19 19 18 18 18 18 17 17 16 16 16 16 15 15 15 15 14 14 14 14 13 13
23 24 24 24 24 24 24 24 25 24 24 24 24 23 22 21 20 20 20 19 19 19 18 18 18 18 17 17 17 16 16 16 15 15 15 15 15 14 14 14 14 14 13 13
22 23 23 23 22 23 23 23 23 23 23 23 22 22 21 20 19 19 19 19 18 18 18 18 17 17 17 17 17 16 16 15 15 15 15 14 14 14 14 14 14 13 13 13
22 22 22 22 22 22 22 22 22 22 22 22 21 21 20 19 19 18 18 18 18 18 18 17 17 17 16 16 16 16 15 15 14 14 14 14 14 14 14 13 13 13 13 12
21 21 21 20 20 20 21 21 21 21 21 21 20 20 19 19 18 18 18 18 17 17 17 17 16 16 16 16 16 15 15 15 14 14 14 14 14 14 14 13 13 13 12 12
20 20 20 20 20 20 20 20 20 20 20 20 19 19 19 18 17 17 17 17 17 16 16 16 16 16 15 15 15 15 14 14 14 14 14 14 14 13 13 13 13 12 12 12
19 19 19 19 19 19 19 19 19 19 19 19 19 18 18 17 17 17 17 16 16 16 16 15 15 15 15 15 14 14 14 14 14 14 14 14 13 13 13 13 12 12 12 12
19 19 19 18 18 18 18 18 18 18 18 18 18 17 17 17 16 16 16 16 16 15 15 15 15 15 15 14 14 14 14 14 14 14 14 14 13 13 13 13 12 12 12 12
18 18 18 18 18 18 18 18 18 17 17 17 17 17 16 16 16 16 15 15 15 15 15 14 14 14 14 14 14 14 14 13 13 13 13 13 13 13 13 12 12 12 12 12
17 17 17 17 17 17 17 17 17 17 17 16 16 16 16 16 15 15 15 15 14 14 14 14 14 14 14 14 14 14 13 13 13 13 13 13 13 13 13 13 12 12 12 11
17 17 17 16 16 16 16 16 16 16 16 16 16 15 15 15 15 15 14 14 14 14 14 14 13 13 13 13 13 13 13 13 13 13 13 13 13 13 12 12 12 12 12 11
16 16 16 16 15 15 15 15 15 15 15 15 15 15 15 14 14 14 14 14 13 13 13 13 13 13 13 13 13 13 13 13 13 13 12 12 12 12 12 12 12 12 11 11
15 15 15 15 15 15 15 15 15 15 15 15 15 14 14 14 14 14 14 13 13 13 13 13 13 13 13 13 13 13 13 13 13 13 12 12 12 12 12 12 12 12 11 11
14 14 14 14 14 14 14 14 14 14 14 14 14 14 14 14 13 13 13 13 13 13 13 13 13 13 13 13 13 13 13 13 13 13 12 12 12 12 12 12 12 11 11 11
13 13 13 13 13 13 13 13 14 14 14 14 14 14 13 13 13 13 13 13 13 13 13 13 13 12 12 12 12 13 12 12 12 12 12 12 12 12 12 11 11 11 11 11
12 13 13 13 13 13 13 13 13 13 13 13 13 13 13 13 13 13 13 13 13 12 12 12 12 12 12 12 12 12 12 12 12 12 12 12 12 12 11 11 11 11 11 10
12 12 12 12 13 13 13 13 13 13 13 13 13 13 13 13 13 13 13 12 12 12 12 12 12 12 12 12 12 12 12 12 12 12 12 12 12 11 11 11 11 11 10 10
12 12 12 12 12 12 13 13 13 13 13 13 13 13 13 13 13 12 12 12 12 12 12 12 12 12 12 12 12 11 11 12 12 12 12 11 11 11 11 11 10 10 10 10

GEFSNGP_850_meantemp_210.txt.gz
Temperature
22 24 25 26 26 26 24 22 22 23 23 23 23 23 23 24 24 24 24 24 24 23 23 23 23 22 22 22 21 21 20 20 20 19 19 18 18 18 17 17 17 16 16 16
23 24 25 25 26 26 26 24 24 23 23 23 24 24 24 24 24 23 23 24 24 23 23 23 23 22 22 21 21 21 20 20 19 19 18 18 18 17 17 17 16 16 16 16
20 22 24 24 25 25 25 25 24 23 23 22 22 22 23 23 24 23 23 24 23 23 23 23 22 22 22 21 21 20 20 20 19 19 18 18 17 17 17 16 16 16 15 15
18 22 22 22 23 25 25 25 24 23 23 22 22 23 24 24 24 24 24 24 23 23 22 22 22 22 22 21 20 20 20 19 19 18 18 18 17 17 16 16 16 15 15 15
17 19 21 22 24 25 24 23 23 22 22 22 23 22 22 23 24 25 24 24 23 23 22 22 22 21 21 21 20 20 19 19 18 18 18 17 17 17 16 16 16 15 15 14
17 20 20 22 23 25 24 22 22 22 21 22 22 20 21 23 24 24 24 23 23 22 22 22 22 21 21 20 20 19 19 19 18 18 17 17 17 16 16 16 15 15 15 14
18 19 19 21 23 24 22 21 22 22 22 22 21 21 23 23 23 24 23 23 22 22 22 22 21 21 20 20 19 19 19 18 18 17 17 17 16 16 16 15 15 15 14 14
16 18 19 21 22 21 21 22 22 22 22 22 22 22 22 22 23 23 22 22 22 22 21 21 21 21 20 20 19 19 18 18 17 17 17 16 16 16 15 15 15 14 14 14
16 17 19 21 21 22 23 22 22 22 22 22 22 22 22 21 22 22 22 21 21 21 21 20 20 20 20 19 19 18 18 17 17 16 16 16 16 15 15 15 14 14 14 14
16 17 19 21 21 22 23 22 22 22 22 21 21 21 21 21 21 21 21 21 20 20 20 20 19 19 19 19 18 18 17 17 16 16 16 15 15 15 15 15 14 14 14 13
16 16 18 19 20 21 21 22 21 21 21 21 21 20 20 20 20 20 20 20 20 20 20 19 19 19 18 18 18 17 17 16 16 16 15 15 15 14 14 14 14 14 14 14
15 16 16 17 19 20 21 21 20 20 20 20 20 20 20 20 20 20 20 20 19 19 19 19 18 18 18 17 17 17 16 16 16 15 15 14 14 14 14 14 13 13 13 13
16 17 17 18 19 19 19 20 20 20 20 19 19 19 19 19 19 19 19 19 19 18 18 18 18 17 17 17 16 16 16 16 15 15 14 14 14 14 14 13 13 13 13 13
17 17 17 18 18 19 19 19 19 19 18 19 18 18 18 18 18 18 18 18 18 18 17 17 17 17 16 16 16 16 15 15 15 14 14 14 14 13 13 13 13 13 13 12
16 17 16 17 18 18 18 18 18 18 18 17 18 18 18 18 17 17 17 17 17 17 16 16 16 16 16 16 15 15 15 15 14 14 14 14 13 13 13 13 13 13 12 12
16 17 17 16 17 17 17 17 17 17 17 17 17 17 17 17 17 17 16 16 16 16 16 16 16 16 15 15 15 15 15 14 14 14 13 13 13 13 13 13 13 12 12 12
16 16 16 16 16 16 17 17 17 17 16 16 16 17 17 16 16 16 16 16 16 16 16 16 16 15 15 15 15 14 14 14 14 13 13 13 13 13 13 13 12 12 12 12
16 16 16 16 16 16 16 16 16 16 16 16 16 16 16 16 16 16 16 15 15 15 15 15 15 15 15 14 14 14 14 14 13 13 13 13 13 13 12 12 12 12 12 12
16 16 16 16 16 16 16 16 16 16 16 16 16 16 16 16 16 16 16 15 15 15 15 15 15 14 14 14 14 14 13 13 13 13 13 12 12 12 12 12 12 12 12 11
15 15 15 15 15 15 15 15 15 15 15 15 15 15 15 15 15 15 15 15 15 15 15 14 14 14 14 13 13 13 13 13 13 13 12 12 12 12 12 12 12 12 11 11
15 15 15 15 15 15 15 15 15 15 15 15 15 15 15 15 15 15 15 14 14 14 14 14 14 14 13 13 13 13 13 13 13 12 12 12 12 12 12 12 12 11 11 11
14 14 14 14 14 14 14 15 15 15 15 15 15 14 14 14 14 14 14 14 14 14 14 14 14 13 13 13 13 13 12 12 12 12 12 12 12 12 12 12 11 11 11 11
13 13 14 14 14 14 14 14 14 14 14 14 14 14 14 14 14 14 14 14 14 14 13 13 13 13 13 13 13 13 13 12 12 12 12 12 12 12 12 11 11 11 11 11
13 13 13 13 13 13 13 13 13 13 14 14 14 14 14 14 14 14 14 14 13 13 13 13 13 13 13 12 12 12 12 12 12 12 12 12 12 12 12 11 11 11 11 11
13 13 13 13 13 13 13 13 13 13 13 13 13 13 13 14 14 13 13 13 13 13 13 13 13 13 12 12 12 12 12 12 12 12 12 12 12 12 11 11 11 11 11 11
12 12 12 12 12 12 12 12 12 12 13 13 13 13 13 13 13 13 13 13 13 13 13 13 12 12 12 12 12 12 12 12 12 12 11 11 11 11 11 11 11 11 11 10
12 12 12 12 12 12 12 12 12 12 12 12 12 12 12 13 13 13 13 13 13 13 12 12 12 12 12 11 11 11 11 11 11 11 11 11 11 11 11 11 11 11 10 10

GEFSNGP_850_meantemp_216.txt.gz
Temperature
19 21 21 22 22 20 21 19 20 20 20 21 20 20 21 22 22 22 22 23 23 23 23 23 23 22 22 22 21 21 21 20 20 19 19 18 18 18 17 17 16 16 16 16
20 21 21 22 22 21 21 21 21 21 21 20 20 21 21 21 21 22 23 23 23 23 23 23 23 22 22 22 21 21 20 20 19 19 19 18 18 17 17 17 16 16 16 16
18 20 22 21 22 21 21 21 21 21 21 20 19 19 21 21 22 22 23 24 23 23 23 23 23 23 22 22 21 21 20 20 19 19 18 18 18 17 17 16 16 16 15 15
16 20 21 20 21 21 21 21 20 20 20 19 20 21 22 22 23 23 23 23 23 23 23 23 22 22 22 21 21 20 20 19 19 19 18 18 17 17 17 16 16 16 15 15
15 18 19 21 21 20 20 21 20 19 19 19 20 20 20 22 23 23 24 24 23 23 23 22 22 22 22 21 21 20 20 19 19 18 18 18 17 17 17 16 16 15 15 15
15 18 19 20 21 21 21 20 19 19 18 18 19 19 20 22 22 22 23 23 23 22 22 22 22 21 21 21 20 20 19 19 19 18 18 18 17 17 16 16 15 15 15 14
15 17 18 19 19 20 20 20 19 19 18 18 19 20 21 22 22 22 22 22 22 22 22 22 21 21 20 20 20 20 19 19 18 18 17 17 17 16 16 16 15 15 15 14
14 16 17 18 18 18 18 19 19 19 19 19 20 21 21 21 21 21 21 21 22 22 21 21 21 20 20 20 20 19 19 18 18 17 17 17 16 16 16 15 15 15 14 14
14 15 16 16 17 18 18 18 19 19 19 19 20 20 20 20 21 21 21 21 21 21 21 21 20 20 20 20 19 19 18 18 17 17 16 16 16 16 15 15 15 14 14 14
13 14 15 16 17 18 18 18 19 19 19 20 20 20 20 20 20 20 20 20 20 21 20 20 20 19 19 19 19 18 18 17 17 16 16 15 15 15 15 15 14 14 14 14
13 14 15 16 17 17 18 18 19 19 19 19 20 19 20 20 20 20 19 20 20 20 20 20 19 19 19 18 18 18 17 17 16 16 15 15 15 14 14 14 14 14 14 13
14 14 14 15 16 17 18 18 18 18 19 19 19 19 19 19 19 19 19 19 19 19 19 19 18 18 18 18 17 17 17 17 16 15 15 15 14 14 14 14 13 13 13 13
15 15 15 16 16 17 17 17 18 18 18 18 18 18 19 19 18 18 18 18 18 18 18 18 18 17 17 17 17 17 16 16 16 15 15 14 14 14 13 13 13 13 13 13
15 15 15 16 16 16 17 17 17 17 17 17 18 18 18 18 18 18 18 18 17 17 17 17 17 17 17 16 16 16 16 16 15 15 14 14 14 13 13 13 13 13 13 12
15 15 15 15 16 16 16 16 16 16 16 16 16 17 17 17 17 17 17 17 17 17 17 16 16 16 16 16 16 15 15 15 15 14 14 14 13 13 13 13 13 12 12 12
14 15 15 15 15 15 16 16 15 15 15 15 16 16 16 16 16 16 16 16 16 16 16 16 16 16 15 15 15 15 15 15 14 14 14 13 13 13 13 12 12 12 12 12
14 14 14 14 15 15 15 15 15 15 15 15 15 15 15 15 15 15 16 16 16 16 15 15 15 15 15 15 15 14 14 14 14 14 13 13 13 12 12 12 12 12 12 12
14 14 14 14 14 15 15 15 15 15 15 15 15 15 15 15 15 15 15 15 15 15 15 15 14 14 14 14 14 14 14 13 13 13 13 13 13 12 12 12 12 12 12 11
13 14 14 14 14 14 14 14 14 14 14 15 15 14 14 15 15 15 15 15 14 14 14 14 14 14 14 14 13 13 13 13 13 13 13 12 12 12 12 12 12 12 12 11
13 13 14 14 14 14 14 14 14 14 14 14 14 14 14 14 14 14 14 14 14 14 14 14 14 13 13 13 13 13 13 13 12 12 12 12 12 12 12 12 12 12 11 11
13 13 13 13 13 13 14 14 14 14 14 14 14 14 14 14 14 14 14 14 14 14 14 14 13 13 13 13 13 13 13 12 12 12 12 12 12 12 12 12 11 11 11 11
13 13 13 13 13 13 13 13 13 14 14 14 14 14 14 14 14 14 14 14 14 14 14 13 13 13 13 13 13 13 13 12 12 12 12 12 12 12 11 11 11 11 11 11
13 13 13 13 13 13 13 13 13 13 13 14 14 14 14 14 14 14 14 14 13 13 13 13 13 13 13 12 12 12 12 12 12 12 12 12 12 11 11 11 11 11 11 11
12 12 12 12 12 13 13 13 13 13 13 13 13 13 13 13 13 13 13 13 13 13 13 13 13 13 12 12 12 12 12 12 12 12 12 12 11 11 11 11 11 11 11 11
12 12 12 12 12 12 12 12 12 13 13 13 13 13 13 13 13 13 13 13 13 12 12 12 12 12 12 12 12 12 12 12 12 12 11 11 11 11 11 11 11 11 11 10
11 11 11 12 12 12 12 12 12 12 12 12 12 12 12 12 12 12 12 12 12 12 12 12 12 12 12 12 12 12 11 11 11 11 11 11 11 11 11 11 10 10 10 10
11 11 11 11 11 11 11 11 11 11 12 12 12 12 12 12 12 12 12 12 12 12 12 12 12 12 12 11 11 11 11 11 11 11 11 11 11 10 10 10 10 10 10 10

GEFSNGP_850_meantemp_222.txt.gz
Temperature
29 29 29 29 29 29 29 30 30 31 31 31 31 30 28 27 26 25 25 24 23 23 23 22 22 22 22 21 21 21 20 20 20 20 20 19 19 18 18 17 17 17 16 16
27 28 28 29 29 29 29 30 30 30 31 31 29 28 27 26 26 25 24 24 23 22 22 22 22 22 21 21 21 21 20 20 20 20 19 19 18 18 17 17 17 16 16 15
27 28 27 27 29 29 29 30 30 30 30 29 28 27 26 25 25 25 24 24 23 22 22 22 22 22 22 21 21 20 20 20 20 19 19 19 18 18 17 17 16 16 16 16
27 26 25 28 29 29 29 29 29 29 29 28 28 26 25 24 24 24 23 23 22 22 22 22 22 21 21 21 21 20 20 20 20 19 19 18 18 17 17 17 16 16 16 15
26 26 26 27 27 28 28 28 28 28 28 27 26 26 26 24 23 23 22 22 22 22 22 22 22 21 21 20 20 20 20 20 19 19 19 18 18 17 17 16 16 16 15 15
25 25 25 27 27 26 27 26 26 26 26 26 26 27 27 23 22 22 21 21 21 21 21 21 21 21 20 20 20 19 19 19 19 19 18 18 18 17 17 16 16 15 15 15
24 25 26 26 25 26 26 26 24 24 24 24 25 25 23 21 21 20 20 20 20 20 20 21 20 20 20 20 19 19 19 19 18 18 18 18 17 17 16 16 15 15 15 14
24 24 25 24 25 25 24 22 22 23 23 23 22 21 21 20 20 19 19 19 20 20 20 20 20 20 20 20 19 19 18 18 18 17 17 17 17 16 16 15 15 15 14 14
24 24 22 22 22 21 20 21 21 21 21 21 21 20 20 19 19 19 19 19 19 19 19 19 19 19 19 19 19 18 18 18 17 17 16 16 16 16 15 15 15 15 14 14
21 22 21 20 20 19 19 20 20 20 20 20 20 19 19 19 19 18 18 18 18 18 18 19 19 18 19 18 18 18 18 17 17 17 16 16 16 15 15 15 15 14 14 14
21 20 20 19 19 19 19 19 19 19 19 19 19 19 18 18 18 18 18 18 18 18 18 18 18 18 18 18 18 17 17 17 17 16 16 16 15 15 15 15 15 14 14 14
21 20 20 19 18 18 18 18 18 18 18 18 18 18 18 17 17 17 17 17 17 17 17 17 18 17 17 17 17 17 16 16 16 16 16 15 15 15 15 14 14 14 14 13
18 18 18 17 17 17 17 17 17 17 17 18 17 17 17 17 17 17 17 17 17 17 17 17 17 17 17 17 17 16 16 16 16 15 15 15 15 15 14 14 14 14 14 13
16 16 16 17 17 17 17 17 17 17 17 17 17 16 16 16 16 16 16 16 16 16 16 16 16 16 16 16 16 16 15 15 15 15 15 15 14 14 14 14 14 13 13 13
16 16 16 16 16 16 16 16 16 16 16 16 16 16 16 16 15 15 16 16 16 16 16 16 16 16 16 16 15 15 15 15 15 15 14 14 14 14 14 13 13 13 13 13
15 15 15 15 15 16 16 16 16 15 15 15 15 15 15 15 15 15 15 15 16 16 15 15 15 15 15 15 15 15 14 14 14 14 14 14 14 14 13 13 13 13 13 12
15 15 15 15 15 15 15 15 15 15 15 15 15 15 15 15 15 15 15 15 15 15 15 15 15 15 15 14 14 14 14 14 14 14 14 14 13 13 13 13 13 13 12 12
15 15 15 15 15 15 15 14 14 14 14 14 14 14 14 14 14 14 14 14 14 14 14 14 14 14 14 14 14 14 14 13 13 13 13 13 13 13 13 13 13 12 12 12
14 14 14 14 14 14 14 14 14 14 14 14 14 14 13 14 14 14 14 14 14 14 14 14 14 14 13 14 13 14 13 13 13 13 13 13 12 12 12 12 12 12 12 12
14 14 13 13 13 13 13 13 13 13 13 13 13 13 13 13 13 14 14 14 14 14 14 14 13 13 13 13 13 13 13 13 13 13 12 12 12 12 12 12 12 12 12 11
13 13 13 13 13 13 13 13 13 13 13 13 13 13 13 13 13 13 14 14 14 13 13 13 13 13 13 13 13 13 13 13 13 13 12 12 12 12 12 12 12 12 11 11
13 13 13 12 12 12 12 12 12 13 13 13 13 13 13 13 13 13 13 13 13 13 13 13 13 13 13 12 12 12 13 12 12 12 12 12 12 12 12 12 12 11 11 11
12 12 12 12 12 12 12 12 12 12 12 12 12 12 13 13 13 13 13 13 13 13 13 13 13 13 13 12 12 12 12 12 12 12 12 12 12 12 12 12 11 11 11 11
12 12 12 12 12 12 12 12 12 12 12 12 12 12 12 13 13 13 13 13 13 13 13 13 13 12 12 12 12 12 12 12 12 12 12 12 12 12 11 11 11 11 11 11
11 11 11 11 11 12 12 12 12 12 12 12 12 12 12 12 13 13 13 13 13 12 12 12 12 12 12 12 12 12 12 12 12 12 12 12 12 11 11 11 11 11 11 10
11 11 11 11 11 11 12 12 12 12 12 12 12 12 12 12 12 12 12 12 12 12 12 12 12 11 11 11 12 11 11 11 11 11 12 12 11 11 11 11 11 11 10 10
11 11 11 11 11 11 11 12 12 12 12 12 12 12 12 12 12 12 12 12 12 12 11 11 11 11 11 11 11 11 11 11 11 11 11 11 11 11 11 10 10 10 10 10

GEFSNGP_850_meantemp_228.txt.gz
Temperature
30 31 32 32 32 32 32 32 31 31 31 31 30 30 30 30 29 29 28 27 27 26 25 25 24 24 23 22 22 22 21 21 21 20 20 19 19 19 19 18 18 18 17 17
29 31 31 31 32 32 32 32 32 32 31 32 30 29 29 29 29 28 28 27 26 25 25 24 24 23 23 22 22 22 21 21 20 20 20 19 19 19 18 18 18 18 17 17
28 30 30 30 31 32 32 32 32 31 31 31 30 29 28 28 28 27 27 26 26 25 24 24 23 23 22 22 22 21 21 20 20 20 19 19 19 19 18 18 18 17 17 17
27 28 27 30 32 32 32 32 32 32 31 31 29 28 27 27 26 27 26 25 25 24 24 23 23 22 22 22 21 21 20 20 20 19 19 19 19 18 18 18 18 17 17 17
27 27 28 29 31 31 31 30 31 31 31 31 30 29 27 26 26 26 25 25 24 24 23 23 22 22 21 21 20 20 20 20 19 19 19 19 18 18 18 18 18 17 17 17
26 26 26 28 30 31 31 29 30 30 30 29 29 28 27 26 25 25 24 24 23 23 23 22 22 21 21 21 20 20 20 19 19 19 19 19 18 18 18 18 17 17 16 16
25 25 26 28 29 30 28 27 28 28 28 28 27 27 25 25 24 24 23 23 23 22 22 22 21 21 21 20 20 20 19 19 19 19 19 18 18 18 17 17 16 16 16 16
25 25 25 27 28 27 26 26 27 27 27 26 25 25 24 24 23 22 22 22 22 21 21 21 21 21 20 20 20 19 19 19 18 18 18 18 17 17 17 16 16 16 16 16
24 24 24 25 25 25 25 25 25 25 25 25 24 24 23 23 22 22 21 21 21 21 20 20 20 20 19 19 19 19 18 18 18 18 18 17 17 17 16 16 16 16 15 15
23 24 24 24 24 24 24 24 24 24 24 24 24 23 22 22 21 21 21 20 20 20 19 19 19 19 19 19 18 18 18 17 17 17 17 17 17 16 16 16 16 15 15 15
23 23 23 23 23 23 23 23 23 23 23 23 22 22 21 21 20 20 20 20 19 19 18 18 18 18 18 18 17 17 17 17 17 16 16 16 16 16 16 16 16 16 16 15
22 23 23 21 22 22 22 22 22 22 22 22 22 21 20 20 19 19 19 19 18 18 18 18 17 17 17 17 17 17 16 16 16 16 16 16 16 16 16 16 16 15 15 15
21 21 21 21 21 21 21 21 21 21 21 21 20 20 20 19 19 18 18 18 18 17 17 17 17 17 17 17 17 16 16 16 16 16 16 16 16 16 16 15 15 15 15 15
20 20 20 20 20 20 20 20 20 20 20 20 19 19 19 18 18 18 17 17 17 17 17 17 16 16 16 16 16 16 16 16 16 16 16 16 15 15 15 15 15 15 15 15
19 19 19 20 20 20 20 20 19 19 19 19 18 18 18 17 17 17 17 17 16 16 16 16 16 16 16 16 16 16 15 15 15 15 15 15 15 15 15 15 15 15 15 14
19 19 19 19 19 19 19 19 19 18 18 18 17 17 17 16 16 16 16 16 16 16 16 16 15 15 15 15 15 15 15 15 15 15 15 15 15 15 15 14 14 14 14 14
18 18 18 18 18 18 18 18 18 17 17 17 17 16 16 16 16 15 15 15 15 15 15 15 15 15 15 15 15 15 15 15 14 14 15 15 15 14 15 14 14 14 14 14
18 18 18 18 18 18 18 17 17 17 17 16 16 16 15 15 15 15 15 15 15 15 15 15 15 15 15 15 14 14 14 14 14 14 14 14 14 14 14 14 14 14 14 13
17 17 17 17 17 17 17 17 16 16 16 16 16 15 15 15 15 14 15 15 14 14 14 14 14 14 14 14 14 14 14 15 14 14 14 14 14 14 14 14 14 14 14 13
16 16 17 16 16 16 16 16 16 15 15 15 15 15 15 14 14 14 14 14 14 14 14 14 14 14 14 14 14 14 14 14 14 14 14 14 14 14 14 14 14 14 13 13
15 16 16 15 15 15 15 15 15 15 15 14 14 14 14 14 14 14 14 14 14 14 14 14 14 14 14 14 14 14 14 14 14 14 14 14 13 13 13 13 13 13 13 13
15 15 15 15 15 15 15 14 14 14 14 14 14 14 14 14 14 14 14 14 14 14 14 14 14 14 14 14 14 14 14 14 14 13 13 13 13 13 13 13 13 13 13 12
14 14 14 14 14 14 14 14 14 14 14 14 14 14 14 14 14 14 14 14 14 14 14 14 14 14 14 13 13 13 13 13 13 13 13 13 13 13 13 13 13 13 13 12
13 13 13 14 14 14 13 14 13 13 13 13 14 14 14 14 14 14 14 14 14 14 13 13 13 13 13 13 13 13 13 13 13 13 13 13 13 13 13 13 13 12 12 12
13 13 13 13 13 13 13 13 13 13 13 13 13 14 14 13 13 13 13 13 13 13 13 13 13 13 13 13 13 13 13 13 12 13 13 13 13 13 13 13 12 12 12 12
13 13 13 13 13 13 13 13 13 14 14 13 13 13 13 13 13 13 13 13 13 13 13 13 13 13 13 13 12 12 12 12 12 12 12 12 12 12 12 12 12 12 12 11
13 13 13 13 13 13 13 13 13 13 13 13 13 13 13 13 13 13 13 13 13 13 13 13 13 13 13 12 12 12 12 12 12 12 12 12 12 12 12 12 12 11 11 11

GEFSNGP_850_meantemp_234.txt.gz
Temperature
22 23 24 25 25 26 25 22 22 23 23 23 23 23 23 24 24 24 24 24 23 24 24 23 23 23 23 23 22 22 22 21 21 21 20 20 20 19 19 19 18 18 18 17
22 24 24 25 25 26 25 25 24 24 23 23 23 24 23 23 23 23 23 23 23 24 23 23 23 23 23 23 22 22 22 21 21 21 20 20 19 19 19 19 18 18 17 17
20 22 23 23 24 25 24 24 24 23 23 22 22 22 22 22 23 23 23 23 23 23 24 23 23 23 23 23 22 22 21 21 21 20 20 20 19 19 19 18 18 18 17 17
18 21 22 22 23 24 24 24 23 23 22 22 22 22 23 23 23 23 23 23 23 23 23 23 23 23 22 22 22 21 21 21 21 20 20 19 19 19 18 18 18 18 17 17
17 19 20 22 23 24 23 22 23 22 22 22 22 22 21 22 23 23 23 23 23 23 23 23 23 22 22 22 21 21 21 21 20 20 20 19 19 19 18 18 17 17 17 17
17 19 20 21 23 24 23 21 21 22 21 21 21 20 20 22 22 22 22 23 23 22 23 22 22 22 22 21 21 21 21 21 20 20 19 19 19 18 18 18 17 17 17 17
17 18 19 20 22 23 21 20 21 22 22 21 20 21 22 22 22 22 22 22 22 22 22 22 22 21 21 21 21 21 21 20 20 19 19 19 18 18 18 17 17 17 17 16
16 17 18 20 21 20 19 20 21 21 22 21 21 22 22 22 22 22 21 21 21 21 21 21 21 21 21 21 20 20 20 19 19 19 18 18 18 17 17 17 16 16 16 16
16 17 18 20 20 20 20 20 20 21 21 21 21 21 21 21 21 21 21 21 21 21 20 20 20 20 20 20 19 19 19 19 18 18 18 18 17 17 17 16 16 16 16 16
16 17 18 19 20 20 20 20 21 21 21 21 21 21 21 21 20 20 20 20 20 20 20 19 19 19 19 19 19 18 18 18 18 17 17 17 17 16 16 16 16 16 16 16
15 16 17 18 19 19 20 20 20 20 20 20 20 20 20 20 20 20 20 20 19 19 19 19 19 18 18 18 18 18 17 17 17 17 17 16 16 16 16 16 16 16 16 15
14 16 15 17 18 19 19 19 19 19 19 20 20 20 20 19 19 19 19 19 19 19 18 18 18 18 18 18 17 17 17 17 17 17 16 16 16 15 15 15 15 15 15 15
17 17 18 18 18 18 18 18 19 19 19 19 19 19 19 19 19 19 18 18 18 18 18 18 17 17 17 17 17 17 17 16 16 16 16 16 15 15 15 15 14 14 14 14
17 17 17 17 18 18 18 18 18 18 19 19 19 19 19 18 18 18 18 18 18 17 17 17 17 17 17 16 16 16 16 16 16 16 15 15 15 15 15 15 14 14 14 14
17 17 17 17 17 17 18 18 18 18 18 18 18 18 18 18 17 17 17 17 17 17 17 16 16 16 16 16 16 16 16 15 15 15 15 15 15 14 14 14 14 14 14 13
16 16 16 16 16 17 17 17 17 17 17 17 17 17 17 17 17 16 16 16 16 16 16 16 16 16 16 16 16 15 15 15 15 15 14 14 14 14 14 14 14 14 14 13
15 15 15 16 16 16 16 17 17 16 17 17 17 17 16 16 16 16 16 16 16 16 16 15 15 15 15 15 15 15 15 14 14 14 14 14 14 14 14 14 13 14 14 14
15 15 16 15 15 15 16 16 16 16 16 16 16 16 16 16 16 15 15 15 15 15 15 15 15 15 15 15 15 14 14 14 14 14 14 14 14 13 13 13 13 13 13 13
15 15 15 15 15 15 15 15 16 16 16 16 15 15 15 15 15 15 15 15 15 15 14 14 14 14 14 14 14 14 14 14 14 13 13 13 13 13 13 13 13 13 13 13
15 15 15 15 15 15 15 15 15 15 15 15 15 15 15 15 14 14 14 14 14 14 14 14 14 14 14 14 14 14 14 13 13 13 13 13 13 13 13 13 13 13 13 13
14 14 14 15 15 15 15 15 15 15 15 15 15 14 14 14 14 14 14 14 14 14 14 14 14 14 14 14 13 13 13 13 13 13 13 13 13 12 12 13 13 13 13 13
14 14 14 14 14 14 14 14 14 14 14 14 14 14 14 14 14 14 14 14 14 14 13 13 13 13 13 13 13 13 13 13 13 13 12 12 12 12 12 12 12 12 12 12
13 14 14 14 14 14 14 14 14 14 14 14 14 14 14 14 14 13 13 13 13 13 13 13 13 13 13 13 13 13 13 13 13 12 12 12 12 12 12 12 12 12 12 12
13 13 13 14 14 14 14 14 14 14 14 14 14 14 14 13 13 13 13 13 13 13 13 13 13 13 13 13 13 13 13 12 12 12 12 12 12 12 12 12 12 12 12 12
13 13 13 13 13 13 13 13 13 13 13 13 13 13 13 13 13 13 13 13 13 13 13 13 13 13 13 13 12 12 12 12 12 12 12 12 12 12 12 11 11 11 11 11
13 13 13 13 13 13 13 13 13 13 13 13 13 13 13 13 13 13 13 13 12 12 12 12 12 13 12 12 12 12 12 12 12 12 12 12 11 11 11 11 11 11 11 11
12 12 12 13 12 12 12 12 12 12 12 12 12 13 13 13 13 13 12 12 12 12 12 12 12 12 12 12 12 12 12 12 12 12 11 11 11 11 11 11 11 11 11 10

GEFSNGP_850_meantemp_240.txt.gz
Temperature
19 20 21 21 21 20 20 19 20 20 20 21 20 20 20 21 22 22 22 23 23 23 23 23 23 23 23 22 22 22 21 21 21 21 20 20 20 19 19 18 18 18 18 18
20 20 20 21 21 21 21 20 20 21 20 19 20 20 20 21 21 21 22 22 23 23 23 23 23 23 23 22 22 22 21 21 21 20 20 20 19 19 19 19 18 18 18 17
18 19 21 20 20 20 21 20 20 20 20 19 19 19 20 20 21 21 22 22 22 23 23 23 22 22 22 22 22 21 21 21 21 20 20 20 19 19 19 19 18 18 18 17
16 19 20 20 20 20 20 20 19 19 19 19 19 20 20 21 21 21 21 22 22 22 22 22 22 22 22 21 21 21 21 20 20 20 20 20 19 19 19 18 18 18 17 17
14 17 18 19 20 19 19 20 19 18 18 19 19 19 20 21 21 21 21 22 22 22 22 22 22 22 21 21 21 21 20 20 20 20 19 19 19 18 18 18 18 17 17 17
14 17 18 19 20 20 20 19 19 18 18 18 18 18 18 20 21 21 21 22 22 22 22 22 21 21 21 21 21 20 20 20 19 19 19 19 19 18 18 18 18 17 17 16
14 16 17 17 18 19 19 19 19 18 18 18 18 19 20 20 20 21 21 21 21 21 21 21 21 21 21 20 21 20 20 20 19 19 19 19 18 18 18 18 17 17 16 16
13 15 17 17 17 18 17 18 18 18 18 18 18 19 20 20 20 20 20 20 20 21 21 21 21 21 20 20 20 20 19 19 19 19 18 18 18 18 17 17 17 16 16 16
14 15 15 16 17 18 18 18 18 18 19 18 18 19 19 19 19 19 20 20 20 20 20 20 20 20 20 20 19 19 19 18 18 18 17 17 17 17 17 16 16 16 15 15
13 14 15 16 17 18 18 18 19 19 19 18 18 18 19 19 19 19 19 19 19 19 19 19 19 19 19 19 19 18 18 18 17 17 17 17 16 16 16 16 15 15 15 15
13 14 15 16 16 17 18 18 18 18 18 18 19 18 18 18 18 19 19 19 19 19 19 19 19 18 18 18 18 18 18 17 17 17 17 16 16 16 16 15 15 15 15 15
13 14 13 15 16 16 17 17 17 17 18 18 18 18 18 18 18 18 18 18 18 18 18 18 18 18 17 17 17 17 17 17 16 16 16 16 15 15 15 15 15 15 14 14
15 15 15 16 16 16 16 17 17 17 17 17 18 18 18 18 18 18 18 18 18 18 17 17 17 17 17 17 17 17 16 16 16 16 15 15 15 15 15 15 15 14 14 14
15 15 15 15 16 16 16 16 17 17 17 17 17 17 18 18 17 17 17 17 17 17 17 17 17 16 16 16 16 16 16 15 15 15 15 15 15 15 15 14 14 14 14 14
15 15 15 15 15 15 16 16 16 16 16 16 17 17 17 17 17 17 17 17 16 16 16 16 16 16 16 15 15 15 15 15 15 14 14 14 14 14 14 14 14 14 14 14
14 14 14 15 15 15 15 15 15 15 16 16 16 16 17 16 16 16 16 16 16 16 16 15 15 15 15 15 15 15 15 14 14 14 14 14 14 14 14 14 14 13 13 13
13 13 14 14 14 14 15 15 15 15 15 16 16 16 16 16 16 16 15 15 15 15 15 15 15 15 15 15 14 14 14 14 14 14 14 14 13 13 13 13 13 13 13 13
14 14 14 14 14 14 14 14 15 15 15 15 15 15 15 15 15 15 15 15 15 15 15 15 15 15 14 14 14 14 14 14 13 13 13 13 13 13 13 13 13 13 13 12
13 13 14 14 14 14 14 14 15 15 15 15 15 15 15 15 15 14 14 14 14 14 14 14 14 14 14 14 14 13 13 13 13 13 13 13 13 13 13 12 12 12 12 12
13 13 13 13 13 14 14 14 14 14 14 14 14 14 14 14 14 14 14 14 14 14 14 14 14 13 13 13 13 13 13 13 13 13 12 12 12 12 12 12 12 12 12 12
13 13 13 13 13 13 13 14 14 14 14 14 14 14 14 14 14 14 14 14 13 13 13 13 13 13 13 13 13 13 13 13 13 12 12 12 12 12 12 12 12 12 11 11
13 13 13 13 13 13 13 13 13 14 14 14 14 14 13 13 13 13 13 13 13 13 13 13 13 13 13 13 13 13 12 12 12 12 12 12 12 12 11 11 11 11 11 11
13 13 13 13 13 13 13 13 13 13 14 13 13 13 13 13 13 13 13 13 13 13 13 13 13 13 12 12 12 12 12 12 12 12 12 12 12 11 11 11 11 11 11 11
13 13 13 13 13 13 13 13 13 13 13 13 13 13 13 13 13 13 13 13 12 12 12 12 12 12 12 12 12 12 12 12 12 12 12 12 12 11 11 11 11 11 11 11
12 12 12 13 13 13 13 13 13 13 13 13 13 13 12 12 12 12 12 12 12 12 12 12 12 12 12 12 12 12 12 12 12 11 11 11 11 11 11 11 11 11 11 10
12 12 12 12 12 12 12 12 12 12 12 12 12 12 12 12 12 12 12 12 12 12 12 12 12 12 12 12 12 11 11 11 11 11 11 11 11 11 11 11 11 10 10 10
12 12 12 12 12 12 12 12 12 12 12 12 12 12 12 12 12 12 12 12 12 12 12 12 12 11 11 11 11 11 11 11 11 11 11 11 11 11 10 10 10 10 10 10

GEFSNGP_850_meantemp_246.txt.gz
Temperature
29 29 29 29 29 29 29 30 30 31 31 30 29 29 28 27 26 25 25 24 23 23 22 22 21 21 21 21 21 21 21 20 20 20 20 20 19 19 19 19 18 19 18 18
27 28 28 28 29 29 29 30 30 30 30 29 28 27 26 26 25 25 24 24 23 22 22 21 21 21 21 21 21 20 20 20 20 20 20 20 19 19 19 19 18 18 18 18
27 27 27 27 28 29 29 29 29 29 29 28 27 26 25 25 24 24 24 23 22 22 21 21 21 21 21 21 21 21 20 20 20 20 20 19 19 19 19 19 19 18 18 18
27 26 25 28 29 29 28 28 28 28 28 27 26 25 24 23 23 23 22 22 22 21 21 21 21 21 21 21 21 21 20 20 19 19 19 19 19 19 19 18 18 18 18 18
26 26 26 27 27 27 27 27 27 27 27 26 25 25 24 22 22 21 21 21 21 21 21 21 21 21 21 21 21 20 20 20 19 19 19 19 18 19 18 18 18 18 18 17
25 25 25 27 27 26 27 26 26 26 26 25 25 27 25 22 21 21 20 20 20 21 20 20 20 20 20 20 20 20 19 19 19 19 19 18 18 18 18 18 18 17 17 17
24 25 26 26 25 25 25 25 25 25 24 24 24 24 22 21 20 20 20 20 20 20 20 19 19 20 20 20 19 19 19 19 19 18 18 18 18 18 17 17 17 17 16 16
24 24 25 24 25 25 24 23 23 23 23 22 22 21 20 20 19 19 19 19 19 19 19 19 19 19 19 19 19 19 18 18 18 18 18 17 17 17 17 17 16 16 16 16
24 24 22 22 22 22 21 22 21 21 21 21 20 20 19 19 19 19 18 18 18 18 18 18 18 18 18 19 18 18 18 18 18 17 17 17 17 17 16 16 16 16 15 15
22 22 21 21 20 20 20 20 20 20 20 19 19 19 18 18 18 18 18 18 18 18 18 18 18 18 18 18 18 18 17 17 17 17 17 17 16 16 16 16 15 15 15 15
21 21 20 20 19 19 19 19 19 19 19 19 18 18 18 17 17 17 17 17 17 17 17 17 17 17 17 17 17 17 17 17 16 16 16 16 16 16 16 16 15 15 15 15
21 20 21 20 18 18 18 18 18 18 18 18 17 17 17 17 17 17 17 17 17 17 17 16 16 16 17 17 17 16 16 16 16 16 16 16 16 15 16 15 15 15 15 15
18 18 18 17 17 17 17 17 17 17 17 17 17 17 17 16 16 16 16 16 16 16 16 16 16 16 16 16 16 16 16 16 16 16 16 15 15 15 15 15 15 15 14 14
16 16 16 16 16 16 16 16 16 16 16 16 16 16 16 16 16 16 16 16 16 16 16 16 15 16 16 16 16 16 16 16 15 15 15 15 15 15 14 14 14 14 14 14
15 16 15 15 15 15 15 16 16 15 15 15 16 16 16 15 15 15 15 15 15 15 15 15 15 15 15 15 15 15 15 15 15 15 15 15 14 14 14 14 14 14 14 14
15 15 15 15 15 15 15 15 15 15 15 15 15 15 15 15 15 15 15 15 15 15 15 15 15 15 15 15 15 14 14 15 14 14 14 14 14 14 14 14 14 13 14 13
14 14 14 14 14 14 14 15 15 15 14 15 14 14 14 14 14 14 14 14 14 14 14 14 14 14 14 14 14 14 14 14 14 14 14 14 14 14 14 13 13 13 13 13
14 14 14 14 14 14 14 14 14 14 14 14 14 14 14 14 14 14 14 14 14 14 14 14 14 14 14 14 14 14 14 14 14 14 13 13 13 13 13 13 13 13 13 13
13 13 13 13 13 13 14 14 14 14 14 14 14 14 14 14 14 14 14 14 14 14 14 13 14 13 14 14 14 14 14 14 14 13 13 13 13 13 13 13 13 12 12 12
13 13 13 13 13 13 13 13 13 13 13 13 13 13 13 13 13 13 13 13 13 13 13 13 13 13 13 13 14 14 14 14 14 13 13 13 13 13 12 12 12 12 12 12
13 13 13 13 13 13 13 13 13 13 13 13 13 13 13 13 13 13 13 13 13 13 13 13 13 13 13 13 13 14 14 13 13 13 13 13 12 12 12 12 12 12 12 12
12 13 13 13 13 13 13 13 13 13 13 13 13 13 13 13 13 13 13 13 13 13 13 13 13 13 13 13 13 13 13 13 13 13 12 12 12 12 12 12 12 12 11 11
12 12 12 13 13 12 13 13 13 13 13 13 13 13 13 13 13 13 13 13 13 13 13 13 13 13 13 13 13 13 13 12 12 12 12 12 12 12 12 11 11 11 11 11
12 12 12 12 12 12 12 13 12 12 13 13 13 13 12 13 13 13 13 13 13 12 12 12 12 12 12 12 12 12 12 12 12 12 12 12 12 11 11 11 11 11 11 11
12 12 12 12 12 12 12 12 12 12 13 13 12 12 13 12 12 12 12 12 12 12 12 12 12 12 12 12 12 12 12 12 12 12 11 11 11 11 11 11 11 11 11 11
11 12 12 12 12 12 12 12 12 12 12 12 12 12 12 12 12 12 12 12 12 12 12 12 12 12 12 12 12 11 11 11 11 11 11 11 11 11 11 11 10 10 10 10
11 11 11 12 12 12 12 12 12 12 12 12 12 12 12 12 12 12 12 12 12 12 12 12 12 11 12 12 11 11 11 11 11 11 11 11 11 10 10 10 10 10 10 10

GEFSNGP_850_meantemp_252.txt.gz
Temperature
31 32 32 32 32 32 32 32 32 32 31 30 30 31 30 29 29 28 27 27 26 25 25 24 24 23 23 22 22 22 22 21 21 21 20 20 20 19 19 19 19 19 19 18
29 31 32 32 32 32 32 32 32 32 31 31 31 30 29 29 28 28 27 26 25 25 24 24 23 23 23 22 22 22 21 21 21 20 20 20 19 19 19 19 19 19 18 18
28 30 30 30 31 32 32 32 32 31 31 31 30 29 28 28 27 27 26 26 25 24 24 23 23 23 22 22 22 21 21 21 20 20 20 19 19 19 19 19 19 19 18 18
27 28 27 30 32 33 32 32 32 31 31 31 30 29 28 27 27 26 25 25 24 24 23 23 22 22 22 22 21 21 21 20 20 20 19 19 19 19 19 18 18 18 18 18
27 27 28 30 31 32 31 30 31 31 30 30 29 29 27 26 26 25 24 24 23 23 23 23 22 22 22 21 21 21 20 20 20 20 19 19 19 19 19 18 18 18 18 18
26 26 26 29 31 32 31 29 30 30 29 29 29 28 27 25 25 24 24 23 23 23 23 22 22 21 21 21 20 20 20 20 20 19 19 19 19 19 19 18 18 18 18 18
25 25 27 29 30 30 28 27 28 28 28 28 27 26 25 24 24 23 23 23 22 22 21 21 21 21 21 20 20 20 20 19 19 19 19 19 18 18 18 18 18 17 17 18
25 25 25 28 29 27 26 27 27 26 26 26 25 24 23 23 22 22 22 22 21 21 20 20 20 20 20 20 19 19 19 19 19 18 18 18 18 18 18 17 17 17 17 17
25 25 25 26 26 25 25 25 25 25 25 24 24 23 22 22 21 21 21 21 21 20 20 20 19 19 19 19 19 19 19 18 18 18 18 18 18 17 17 17 17 17 17 16
24 24 25 24 24 24 24 24 24 24 23 23 23 22 21 21 21 20 20 20 20 20 19 19 19 19 18 18 18 18 18 18 17 17 17 17 17 17 17 17 17 16 16 16
23 23 23 23 23 23 23 23 23 23 22 22 22 21 21 20 20 19 19 19 19 19 18 18 18 18 18 18 18 17 17 17 17 16 17 17 17 17 17 17 17 16 16 16
22 22 22 22 22 22 22 22 22 22 22 21 21 20 20 19 19 19 19 18 18 18 18 17 17 17 17 17 17 17 16 16 16 16 16 16 16 16 16 16 16 16 16 16
21 21 21 21 21 21 21 21 21 21 20 20 20 20 19 19 18 18 18 18 18 17 17 17 17 17 17 17 17 16 16 16 16 16 16 16 16 16 16 16 16 16 16 16
19 20 20 20 20 20 20 20 20 20 19 19 19 19 18 18 18 18 17 17 17 17 17 17 16 16 16 16 16 16 16 16 16 16 16 16 16 16 16 16 16 15 15 15
19 19 19 19 19 19 19 19 19 19 19 19 18 18 18 17 17 17 17 17 17 16 16 16 16 16 16 16 15 15 15 15 16 16 16 16 16 16 16 16 15 15 15 15
18 18 18 18 18 18 18 18 18 18 18 18 17 17 17 17 16 16 16 16 16 16 16 16 16 16 15 15 15 15 15 16 15 16 16 16 16 16 16 15 15 15 15 15
18 18 18 18 18 18 18 18 17 17 17 17 17 16 16 16 16 16 15 15 15 15 15 15 15 15 15 15 15 15 15 15 15 16 15 16 16 15 15 15 15 15 14 14
17 17 17 17 17 17 17 17 16 16 16 16 16 16 16 15 15 15 15 15 15 15 15 15 15 15 15 15 15 15 15 15 15 15 15 15 15 15 15 15 15 14 14 14
16 16 16 16 16 16 16 16 16 16 15 15 15 15 15 15 15 15 14 14 14 14 14 15 15 15 14 14 15 15 15 15 15 15 15 15 15 15 15 15 15 14 14 14
15 15 15 15 15 15 15 15 15 15 15 15 15 15 15 15 15 14 14 14 14 14 14 14 15 14 14 15 15 15 15 15 15 15 15 15 15 15 15 14 14 14 14 13
15 15 15 15 15 15 15 15 15 15 14 14 14 14 14 14 14 14 14 14 14 14 14 14 14 14 15 15 15 15 15 15 15 15 15 15 15 15 14 14 14 14 13 13
14 14 14 14 14 14 14 14 14 14 14 14 14 14 14 14 14 14 14 14 14 14 14 14 14 14 15 15 15 15 15 15 15 15 15 14 14 14 14 14 14 13 13 13
14 14 14 14 14 14 14 14 14 14 14 14 14 14 14 14 14 14 13 13 14 14 14 14 14 14 14 14 14 14 14 15 15 15 14 14 14 14 13 13 13 13 13 12
13 13 14 14 14 13 13 13 14 14 13 13 13 14 13 14 13 13 13 13 13 14 14 14 14 14 14 14 14 14 14 14 14 14 14 14 13 13 13 13 13 12 12 12
13 13 13 13 13 13 13 13 13 13 13 14 13 13 13 13 14 14 13 13 13 13 13 13 14 14 14 13 13 14 14 14 14 13 13 13 13 13 12 12 12 12 12 11
13 13 13 13 13 13 13 14 14 14 14 14 14 13 13 13 13 13 13 13 13 13 13 13 13 13 13 13 13 13 13 13 13 13 13 13 12 12 12 11 11 11 11 11
13 13 13 13 13 13 13 13 14 14 14 14 14 13 13 13 13 13 13 13 13 13 13 13 13 13 13 13 13 13 13 13 13 12 12 12 12 12 11 11 11 10 10 10

GEFSNGP_850_meantemp_258.txt.gz
Temperature
22 23 25 25 26 25 24 22 22 22 22 22 22 22 22 23 23 23 23 23 23 23 23 23 22 22 22 22 22 21 21 20 20 20 20 20 20 20 19 19 19 19 19 18
22 24 25 25 26 26 25 24 23 23 23 23 22 23 22 23 23 22 23 23 22 22 22 23 22 22 22 22 21 21 21 21 21 20 20 20 19 19 19 19 19 19 19 18
20 22 24 24 24 26 25 25 24 23 22 22 21 22 22 22 22 22 22 23 22 22 23 22 22 22 22 21 21 21 21 21 20 20 20 20 19 19 19 19 19 18 18 18
18 21 22 22 23 25 25 24 23 23 22 22 22 23 23 23 23 23 23 23 23 22 22 22 22 22 22 21 21 21 21 20 20 20 19 19 19 19 19 18 18 18 18 18
17 19 21 22 24 25 24 23 23 23 22 22 22 22 21 22 23 23 23 23 23 23 22 22 22 22 21 21 21 20 20 20 20 20 20 19 19 19 18 18 18 18 18 18
17 20 20 21 23 25 23 21 22 22 22 22 22 20 20 22 22 22 22 22 22 22 22 22 21 21 21 21 21 20 20 20 20 20 19 19 19 19 18 18 18 18 17 17
17 18 19 21 23 23 22 21 22 22 22 22 21 21 22 22 22 22 22 22 22 21 21 21 21 21 21 20 20 20 20 20 19 19 19 19 18 18 18 18 17 17 17 17
16 17 19 20 21 21 20 21 21 21 22 22 22 22 22 22 22 22 21 21 21 21 21 20 20 20 20 20 20 20 19 19 19 19 18 18 18 18 18 17 17 17 17 17
16 17 18 20 20 21 21 21 21 21 21 21 21 20 21 21 21 21 21 21 21 20 20 20 20 20 20 20 19 19 19 19 18 18 18 18 17 17 17 17 17 17 16 16
16 17 18 19 20 21 21 20 21 21 21 20 20 20 20 20 20 20 20 20 20 20 20 19 19 19 19 19 18 18 18 18 18 18 18 17 17 17 17 17 16 16 16 16
15 15 17 18 19 19 20 20 20 20 20 20 20 19 19 19 20 20 19 19 19 19 19 19 18 18 18 18 18 18 18 18 17 17 17 17 17 16 16 16 16 16 16 16
14 15 15 16 18 19 19 19 19 19 19 19 19 19 19 19 19 19 19 19 19 19 18 18 18 18 18 18 18 18 17 17 17 16 16 16 16 16 16 16 16 16 15 15
16 17 17 17 17 18 18 18 19 19 19 19 19 18 19 18 18 18 18 18 18 18 18 18 17 17 17 17 17 17 17 16 16 16 16 16 16 16 15 15 15 15 15 15
16 16 16 17 17 17 18 18 18 18 18 18 18 18 18 18 18 18 17 17 17 17 17 17 17 17 16 16 16 16 16 16 16 16 16 16 15 15 15 15 15 15 15 15
16 16 16 16 17 17 17 17 17 17 17 17 17 17 17 17 17 17 17 17 17 17 16 16 16 16 16 16 16 16 16 16 16 15 15 15 15 15 15 14 14 14 14 14
15 15 15 16 16 16 16 16 16 16 17 17 17 17 17 17 17 16 16 16 16 16 16 16 16 16 16 16 16 16 16 15 15 15 15 15 15 14 14 14 14 14 14 14
15 14 14 15 15 15 16 16 16 16 16 16 16 16 16 16 16 16 16 16 16 16 16 15 15 15 15 15 15 15 15 15 15 15 15 15 15 14 14 14 14 14 14 14
14 14 14 14 15 15 15 15 16 16 16 16 16 16 16 16 16 16 15 15 15 15 15 15 15 15 15 15 15 15 15 15 15 15 14 14 14 14 14 14 14 14 14 14
14 14 14 14 14 15 15 15 15 15 15 15 15 15 15 15 15 15 15 15 15 15 15 15 15 15 15 15 15 15 15 15 14 14 14 14 14 14 14 14 14 14 14 14
14 14 14 14 14 14 14 14 15 14 15 15 15 14 14 14 14 14 14 14 14 14 14 14 14 14 14 14 14 14 14 14 14 14 14 14 14 14 14 14 14 13 13 13
14 14 14 14 14 14 14 14 14 14 14 14 14 14 14 14 14 14 14 14 14 14 14 14 14 14 14 14 14 14 14 14 14 14 14 14 14 14 13 13 13 13 13 13
13 13 13 14 14 14 14 14 14 14 13 14 14 14 14 14 14 14 14 14 14 14 13 13 14 14 14 14 14 14 14 14 14 14 14 13 13 13 13 13 13 13 13 12
13 13 13 13 13 13 13 13 13 13 13 13 13 13 13 13 13 13 13 13 13 13 13 13 13 13 13 13 13 13 13 13 13 13 13 13 13 13 13 13 12 12 12 12
13 13 13 13 13 13 13 13 13 13 13 13 13 13 13 13 13 13 13 13 13 13 13 13 13 13 13 13 13 13 13 13 13 13 13 13 13 12 12 12 12 12 12 12
12 13 13 13 13 13 13 13 13 13 13 13 13 13 13 13 13 13 13 13 13 13 13 13 13 13 13 13 13 13 13 13 13 12 12 12 12 12 12 12 12 11 11 11
12 12 12 12 12 12 12 12 12 12 12 12 12 12 12 12 13 13 13 13 12 12 12 12 12 13 13 13 13 12 12 12 12 12 12 12 12 12 12 11 11 11 11 10
12 12 12 12 12 12 13 12 12 12 12 12 12 12 12 12 12 12 12 12 12 12 12 12 12 12 12 12 12 12 12 12 12 12 12 12 11 11 11 11 11 10 10 10

GEFSNGP_850_meantemp_264.txt.gz
Temperature
19 20 21 22 22 20 20 19 20 20 20 21 20 20 20 21 21 21 21 22 22 22 22 22 22 22 21 21 21 20 20 20 20 20 19 19 19 19 19 18 18 18 18 18
20 20 21 21 21 21 21 20 20 21 20 20 20 20 20 21 21 21 21 22 22 22 22 22 22 22 21 21 21 20 20 20 20 20 19 19 19 19 18 18 18 18 18 18
18 19 21 21 21 21 21 21 20 20 21 19 19 19 20 21 21 21 22 22 22 22 22 22 22 22 21 21 21 20 20 20 20 19 19 19 19 19 18 18 18 18 18 18
16 19 20 20 20 21 21 20 19 20 19 19 19 20 21 22 22 22 22 22 22 22 22 22 21 21 21 21 20 20 20 20 19 19 19 19 19 18 18 18 18 18 17 17
14 17 18 20 20 20 20 20 19 19 19 18 19 19 20 21 21 22 22 22 22 22 22 22 21 21 21 20 20 20 20 19 19 19 19 19 18 18 18 18 18 18 17 17
14 17 18 19 20 20 20 20 19 18 18 17 18 18 19 21 21 21 21 21 22 22 21 21 21 20 20 20 20 20 20 20 19 19 19 19 18 18 18 18 18 17 17 17
14 16 17 18 18 20 20 20 19 19 18 18 18 19 20 20 20 21 21 21 21 21 21 21 20 20 20 20 20 20 19 19 19 19 19 18 18 18 18 18 17 17 17 17
13 16 17 17 18 18 18 18 19 19 19 18 19 20 20 20 20 20 20 20 20 20 20 20 20 20 20 20 20 19 19 19 19 18 18 18 18 18 17 17 17 17 17 16
14 15 15 16 16 17 18 18 18 19 19 19 19 19 20 20 19 19 20 20 20 20 20 20 20 20 20 19 19 19 18 18 18 18 18 18 17 17 17 17 17 17 16 16
13 14 15 16 17 17 18 18 18 19 19 19 19 19 19 19 19 19 19 19 19 19 19 19 19 19 19 19 19 18 18 18 18 18 18 17 17 17 16 16 16 16 16 16
12 13 14 16 17 17 17 18 18 18 18 18 18 18 18 18 19 19 19 19 19 19 19 19 18 18 18 18 18 18 18 18 17 17 17 17 17 16 16 16 16 16 16 15
13 13 13 14 16 16 17 17 17 17 17 17 18 18 18 18 18 18 18 18 18 18 18 18 18 18 18 18 18 18 17 17 17 17 16 16 16 16 15 15 15 15 15 15
15 15 14 15 15 16 16 16 17 17 17 17 17 17 17 17 17 18 18 18 18 18 18 17 17 17 17 17 17 17 17 17 16 16 16 15 15 15 15 15 15 15 14 14
14 14 14 15 15 15 16 16 16 16 16 17 16 16 17 17 17 17 17 17 17 17 17 17 17 16 16 16 16 16 16 16 16 16 15 15 15 15 15 14 14 14 14 14
14 14 14 14 15 15 15 15 15 15 16 16 16 17 17 16 16 16 16 16 16 17 16 16 16 16 16 16 16 16 16 15 15 15 15 15 15 14 14 14 14 14 14 14
14 14 14 14 14 14 14 14 14 14 15 15 15 16 16 16 16 16 16 16 16 16 16 16 16 16 15 15 15 15 15 15 15 15 14 14 14 14 14 14 14 14 14 14
13 13 13 13 13 13 14 14 14 14 14 14 15 15 15 15 15 15 15 16 16 15 15 15 15 15 15 15 15 15 15 14 14 14 14 14 14 14 14 14 14 13 13 13
13 13 13 13 13 13 13 14 14 14 14 14 14 14 14 15 15 15 15 15 15 15 15 15 15 15 15 14 15 15 14 14 14 14 14 14 14 14 13 13 13 13 13 13
13 13 13 13 13 13 13 13 14 14 14 14 14 14 14 14 14 14 14 14 14 14 15 15 15 14 14 14 14 14 14 14 14 14 14 14 13 13 13 13 13 13 13 13
13 13 13 12 13 13 13 13 13 13 13 13 13 13 13 13 14 14 14 14 14 14 14 14 14 14 14 14 14 14 14 14 13 13 13 13 13 13 13 13 13 13 13 12
12 12 12 12 12 13 13 13 13 13 13 13 13 13 13 13 13 13 13 13 13 13 13 13 14 14 14 14 13 13 13 13 13 13 13 13 13 13 13 13 12 12 12 12
12 12 12 12 12 12 12 12 12 12 12 12 12 12 12 12 12 12 12 13 13 13 13 13 13 13 13 13 13 13 13 13 13 13 13 13 12 12 12 12 12 12 12 12
11 11 11 12 12 12 12 12 12 12 12 12 12 12 12 12 12 12 12 12 12 12 13 13 13 13 13 13 12 12 12 12 12 12 12 12 12 12 12 12 12 12 12 11
11 11 11 12 12 12 11 12 12 12 12 12 12 12 12 12 12 12 12 12 12 12 12 12 12 12 12 12 12 12 12 12 12 12 12 12 12 12 12 12 12 11 11 11
11 11 11 11 11 11 11 11 11 12 12 12 12 12 12 12 12 12 12 12 12 12 12 12 12 12 12 12 12 12 12 12 12 12 12 12 12 12 11 11 11 11 11 11
11 11 11 11 12 11 11 11 11 11 11 11 11 11 11 11 11 11 11 11 11 11 11 11 12 12 12 12 12 12 12 11 11 11 11 11 11 11 11 11 11 11 10 10
11 11 11 11 11 11 11 11 11 11 11 11 11 11 11 11 11 11 11 11 11 11 11 11 11 11 11 11 11 11 11 11 11 11 11 11 11 11 11 10 10 10 10 10